"Pseudo-MPEC" for P11WwLu

Created 2024 Aug 1 22:22:11 UT using Find_Orb

Click here for an explanation of pseudo-MPECs

 
 Astrometry: 
     P11WwLu  C2023 06 18.51422720 48 25.027-16 26 47.18   ~7VCq 21.71wXNEOCPF51
     P11WwLu  C2023 06 18.53622620 48 24.508-16 26 42.51   ~7VCq 21.71wXNEOCPF51
     P11WwLu  C2023 06 18.54724020 48 24.250-16 26 40.30   ~7VCq 21.76wXNEOCPF51
     P11WwLu &C2023 07 16.13855020 35 06.13 -14 56 47.3    ~7VFb 21.5 gWNEOCPW84
     P11WwLu &C2023 07 16.14681620 35 05.85 -14 56 46.0    ~7VFb 21.7 gWNEOCPW84
     P11WwLu &C2023 07 28.16087620 28 19.21 -14 20 57.7    ~7VFb 20.7 zWNEOCPW84
     P11WwLu &C2023 07 28.22169420 28 17.10 -14 20 47.1    ~7VFb 20.6 zWNEOCPW84
     P11WwLu  C2023 09 12.25538720 06 42.399-12 14 20.58   ~7VCq 21.60wXNEOCPF51
     P11WwLu  C2023 09 12.26941020 06 42.131-12 14 18.38   ~7VCq 21.70wXNEOCPF51
     P11WwLu  C2023 09 12.28341620 06 41.884-12 14 16.24   ~7VCq 21.73wXNEOCPF51
     P11WwLu  C2023 09 12.29741120 06 41.636-12 14 13.94   ~7VCq 21.53wXNEOCPF51
     P11WwLu  C2023 09 15.25736320 05 51.731-12 06 22.11   ~7VCq 21.55wXNEOCPF52
     P11WwLu  C2023 09 15.26895320 05 51.534-12 06 20.16   ~7VCq 21.50wXNEOCPF52
     P11WwLu  C2023 09 15.28054520 05 51.359-12 06 18.58   ~7VCq 21.60wXNEOCPF52
     P11WwLu  C2023 09 15.29218620 05 51.152-12 06 16.37   ~7VCq 21.51wXNEOCPF52
     P11WwLu* C2024 07 28.39663021 02 48.522+14 26 10.66   ~7SC7 21.04wXNEOCPF51
     P11WwLu  C2024 07 28.41936621 02 47.850+14 26 13.85   ~7SC7 21.17wXNEOCPF51
     P11WwLu  C2024 07 28.43073121 02 47.514+14 26 15.72   ~7SC7 21.16wXNEOCPF51
     P11WwLu KC2024 07 29.22918221 02 24.16 +14 28 11.0    ~7TD7       VNEOCPH21
     P11WwLu KC2024 07 29.23197821 02 24.07 +14 28 11.3    ~7TD7       VNEOCPH21
     P11WwLu 3C2024 07 29.48139921 02 16.684+14 28 46.96   ~7TC7 22.13GVNEOCPT14
     P11WwLu 3C2024 07 29.48260821 02 16.653+14 28 47.07   ~7TC7 22.18GVNEOCPT14
     P11WwLu 3C2024 07 29.48381521 02 16.616+14 28 47.24   ~7TC7 22.06GVNEOCPT14
     P11WwLu KC2024 07 29.92275921 02 03.79 +14 29 47.8    ~7VAq 21.7 GUNEOCPL06
     P11WwLu KC2024 07 29.92450721 02 03.71 +14 29 48.1    ~7VAq 21.4 GUNEOCPL06
     P11WwLu 1C2024 07 30.63472 21 01 42.82 +14 31 27.2    ~81Gq       VNEOCPQ62
     P11WwLu 1C2024 07 30.64195 21 01 42.59 +14 31 28.4    ~81Gq 20.9 GVNEOCPQ62
     P11WwLu KC2024 08 01.19582 21 00 56.87 +14 34 50.7    ~81Gq 19.9 GXNEOCPW62
     P11WwLu KC2024 08 01.21393 21 00 56.32 +14 34 53.0    ~81Gq 19.9 GXNEOCPW62
     P11WwLu KC2024 08 01.23274 21 00 55.75 +14 34 55.5    ~81Gq 20.1 GXNEOCPW62
     P11WwLu  C2024 08 01.38277321 00 51.362+14 35 14.73   ~81Gq 21.26wXNEOCPF52
     P11WwLu  C2024 08 01.39394621 00 51.010+14 35 15.72   ~81Gq 20.57wXNEOCPF52
     P11WwLu  C2024 08 01.40515521 00 50.681+14 35 17.56   ~81Gq 20.93wXNEOCPF52
     P11WwLu  C2024 08 01.41633721 00 50.357+14 35 18.82   ~81Gq 21.20wXNEOCPF52

Station data:
(F51) Pan-STARRS 1, Haleakala  (N20.707234 W156.255910)  US/Hawaii.
   Observers J. Bulger, T. Lowe, A. Schultz, M. Willman. Measurers K.
   Chambers, S. Chastel, T. de Boer, L. Denneau, J. Fairlamb, H. Flewelling,
   M. Huber, C.-C. Lin, E. Magnier, Y. Ramanjooloo, R. Wainscoat, R. Weryk.
   1.8-m Ritchey-Chrétien + CCD.
(F52) Pan-STARRS 2, Haleakala  (N20.707382 W156.255910)  US/Hawaii.
   Observers J. Bulger, T. Dukes, T. Lowe, A. Schultz, M. Willman. Measurers
   K. Chambers, S. Chastel, T. de Boer, L. Denneau, J. Fairlamb, H.
   Flewelling, M. Huber, C.-C. Lin, E. Magnier, Y. Ramanjooloo, R. Wainscoat,
   R. Weryk. 1.8-m Ritchey-Chrétien + CCD.
(H21) Astronomical Research Observatory, Westfield  (N39.483054 W87.968270)
   US/Illinois.  Observer R. Holmes. Measurers S. Foglia, L. Buzzi, T.
   Linder, R. Holmes. 0.76-m f/3.0 astrograph + CCD0.81-m f/4.0 astrograph +
   CCD0.61-m f/4.5 astrograph + CCD0.40-m f/5.32 astrograph + CCD.
(L06) Sormano 2 Observatory, Bellagio Via Lattea  (N45.970100 E9.254030)
   Italy.  Observer G. Ventre. Measurers G. Ventre, P. Sicoli. 0.28-m f/10
   reflector + CCD.
(Q62) iTelescope Observatory, Siding Spring  (S31.273286 E149.064420)
   Australia/NSW.  Observer H. Sato. 0.51-m f/6.8 astrograph + CCD + f/4.5
   focal reducer0.43-m f/6.8 astrograph + CCD + focal reducer0.43-m f/6.8
   astrograph + CCD0.10-m f/5 astrograph + CCD0.127-m f/5.6 refractor +
   CCD0.50-m f/6.8 reflector + CCD0.30-m f/9 reflector + CCD.
(T14) Mauna Kea-UH/Tholen NEO Follow-Up (CFHT)  (N19.825252 W155.468876)
   US/Hawaii.  Observer R. Weryk. 3.6-m Canada-France-Hawaii Telescope.
(W62) Comet Hunter Observatory2, New Ringgold  (N40.745185 W75.862390)
   US/Pennsylvania.  Observer J. Maikner. 0.30-m f/3.8 Riccardi-Honders + CCD.
(W84) Cerro Tololo-DECam  (S30.169594 W70.806420)  Chile.  Observer S. Deen.
   4.0-m reflector + CCD.

Orbital elements:  P11WwLu
   Perihelion 2023 Jan 29.40169 +/- 0.0111 TT =  9:38:26 (JD 2459973.90169)
Epoch 2024 Aug  1.0 TT = JDT 2460523.5                           AutoNEOCP
q   6.60949386 +/- 3.56e-5          (J2000 ecliptic)
H   12.63 G 0.15                    Peri.  349.95640 +/- 0.0010
z  -0.0003446763 +/- 3.92e-6        Node   303.32969 +/- 0.000024
e   1.0022781 +/- 2.59e-5           Incl.   59.06541 +/- 0.000044
From 34 observations 2023 June 18-2024 Aug. 1; mean residual 0".20
Residuals in arcseconds: 
230618 F51  .07-  .05-    230915 F52  .04-  .02+    240729 L06  .33-  .15-    
230618 F51  .05-  .03+    230915 F52  .20+  .24-    240730 Q62  .02+  .06-    
230618 F51  .01-  .06-    230915 F52  .01-  .11+    240730 Q62  .18-  .17+    
230716 W84  .26+  .26+    240728 F51  .29+  .04-    240801 W62  .26+  .08-    
230716 W84  .24+  .06+    240728 F51  .35+  .20-    240801 W62  .14+  .09-    
230728 W84  .25+  .08+    240728 F51  .38+  .01+    240801 W62  .04+  .01+    
230728 W84  .22+  .05+    240729 H21  .59+  .39+    240801 F52  .07+  .20-    
230912 F51  .04-  .09+    240729 H21  .50+  .29+    240801 F52  .17-  .63-    
230912 F51  .20-  .06+    240729 T14  .14-  .16+    240801 F52  .06-  .22-    
230912 F51  .06-  .03-    240729 T14  .07-  .10+    240801 F52  .11+  .37-    
230912 F51  .07+  .04+    240729 T14  .08-  .10+    
230915 F52  .03+  .08-    240729 L06  .08+  .21-    

Ephemerides (geocentric):
Date (UTC) HH   RA             Dec           delta  r     elong  mag " sig PA
---- --------  ------------   ------------  ------ ------ -----  --- --------
2024 08 01 22  21 00 35.561   +14 36 21.89  6.6720 7.5474 147.5 21.5 6.1m 144
2024 08 01 23  21 00 34.331   +14 36 27.05  6.6720 7.5475 147.5 21.5 6.2m 144
2024 08 02 00  21 00 33.100   +14 36 32.19  6.6720 7.5476 147.5 21.5 6.2m 145
2024 08 02 01  21 00 31.870   +14 36 37.33  6.6720 7.5478 147.5 21.5 6.2m 145
2024 08 02 02  21 00 30.639   +14 36 42.45  6.6721 7.5479 147.5 21.5 6.2m 145
2024 08 02 03  21 00 29.408   +14 36 47.57  6.6721 7.5480 147.5 21.5 6.3m 145
2024 08 02 04  21 00 28.177   +14 36 52.68  6.6721 7.5482 147.5 21.5 6.3m 146
2024 08 02 05  21 00 26.946   +14 36 57.78  6.6721 7.5483 147.6 21.5 6.3m 146
2024 08 02 06  21 00 25.715   +14 37 02.87  6.6722 7.5484 147.6 21.5 6.4m 146
2024 08 02 07  21 00 24.484   +14 37 07.96  6.6722 7.5485 147.6 21.5 6.4m 146
2024 08 02 08  21 00 23.253   +14 37 13.03  6.6722 7.5487 147.6 21.5 6.4m 147
2024 08 02 09  21 00 22.022   +14 37 18.10  6.6722 7.5488 147.6 21.5 6.4m 147
2024 08 02 10  21 00 20.791   +14 37 23.15  6.6723 7.5489 147.6 21.5 6.5m 147
2024 08 02 11  21 00 19.560   +14 37 28.20  6.6723 7.5491 147.6 21.5 6.5m 147
2024 08 02 12  21 00 18.328   +14 37 33.24  6.6723 7.5492 147.6 21.5 6.5m 147
2024 08 02 13  21 00 17.097   +14 37 38.27  6.6724 7.5493 147.7 21.5 6.6m 148
2024 08 02 14  21 00 15.866   +14 37 43.30  6.6724 7.5495 147.7 21.5 6.6m 148
2024 08 02 15  21 00 14.634   +14 37 48.31  6.6724 7.5496 147.7 21.5 6.6m 148
2024 08 02 16  21 00 13.403   +14 37 53.31  6.6725 7.5497 147.7 21.5 6.6m 148
2024 08 02 17  21 00 12.172   +14 37 58.31  6.6725 7.5498 147.7 21.5 6.7m 149
2024 08 02 18  21 00 10.940   +14 38 03.30  6.6725 7.5500 147.7 21.5 6.7m 149
2024 08 02 19  21 00 09.708   +14 38 08.28  6.6726 7.5501 147.7 21.5 6.7m 149
2024 08 02 20  21 00 08.477   +14 38 13.25  6.6726 7.5502 147.7 21.5 6.8m 149
2024 08 02 21  21 00 07.245   +14 38 18.21  6.6726 7.5504 147.8 21.5 6.8m 149
2024 08 02 22  21 00 06.013   +14 38 23.16  6.6727 7.5505 147.8 21.5 6.8m 150
2024 08 02 23  21 00 04.782   +14 38 28.10  6.6727 7.5506 147.8 21.5 6.9m 150
2024 08 03 00  21 00 03.550   +14 38 33.04  6.6727 7.5508 147.8 21.5 6.9m 150
2024 08 03 01  21 00 02.318   +14 38 37.96  6.6728 7.5509 147.8 21.5 6.9m 150
2024 08 03 02  21 00 01.086   +14 38 42.88  6.6728 7.5510 147.8 21.5 7.0m 150
2024 08 03 03  20 59 59.855   +14 38 47.79  6.6728 7.5511 147.8 21.5 7.0m 151
2024 08 03 04  20 59 58.623   +14 38 52.69  6.6729 7.5513 147.8 21.5 7.0m 151
2024 08 03 05  20 59 57.391   +14 38 57.58  6.6729 7.5514 147.9 21.5 7.0m 151
2024 08 03 06  20 59 56.159   +14 39 02.47  6.6730 7.5515 147.9 21.5 7.1m 151
2024 08 03 07  20 59 54.927   +14 39 07.34  6.6730 7.5517 147.9 21.5 7.1m 151
2024 08 03 08  20 59 53.695   +14 39 12.21  6.6730 7.5518 147.9 21.5 7.1m 152
2024 08 03 09  20 59 52.463   +14 39 17.06  6.6731 7.5519 147.9 21.5 7.2m 152
2024 08 03 10  20 59 51.231   +14 39 21.91  6.6731 7.5521 147.9 21.5 7.2m 152
2024 08 03 11  20 59 49.999   +14 39 26.75  6.6732 7.5522 147.9 21.5 7.2m 152
2024 08 03 12  20 59 48.767   +14 39 31.58  6.6732 7.5523 147.9 21.5 7.3m 152
2024 08 03 13  20 59 47.534   +14 39 36.40  6.6732 7.5525 147.9 21.5 7.3m 153
2024 08 03 14  20 59 46.302   +14 39 41.22  6.6733 7.5526 148.0 21.5 7.3m 153
2024 08 03 15  20 59 45.070   +14 39 46.02  6.6733 7.5527 148.0 21.5 7.4m 153
2024 08 03 16  20 59 43.838   +14 39 50.82  6.6734 7.5528 148.0 21.5 7.4m 153
2024 08 03 17  20 59 42.606   +14 39 55.60  6.6734 7.5530 148.0 21.5 7.4m 153
2024 08 03 18  20 59 41.374   +14 40 00.38  6.6735 7.5531 148.0 21.5 7.5m 153
2024 08 03 19  20 59 40.141   +14 40 05.15  6.6735 7.5532 148.0 21.5 7.5m 154
2024 08 03 20  20 59 38.909   +14 40 09.91  6.6736 7.5534 148.0 21.5 7.5m 154
2024 08 03 21  20 59 37.677   +14 40 14.67  6.6736 7.5535 148.0 21.5 7.6m 154